Weather reports worldwide

Advertisment
Tain Range, United Kingdom (3062): temperature & dewpoint: 17.01.2019 02:00:00 - 23.01.2019 02:00:00 (GMT)Tain Range, United Kingdom (3062): temperature -20cm & temperature -100cm: 17.01.2019 02:00:00 - 23.01.2019 02:00:00 (GMT)Tain Range, United Kingdom (3062): wind speed & gusts: 17.01.2019 02:00:00 - 23.01.2019 02:00:00 (GMT)Tain Range, United Kingdom (3062): wind direction: 17.01.2019 02:00:00 - 23.01.2019 02:00:00 (GMT)Tain Range, United Kingdom (3062): reduced air pressure: 17.01.2019 02:00:00 - 23.01.2019 02:00:00 (GMT)Tain Range, United Kingdom (3062): visibility: 17.01.2019 02:00:00 - 23.01.2019 02:00:00 (GMT)Tain Range, United Kingdom (3062): precipitation: 17.01.2019 02:00:00 - 23.01.2019 02:00:00 (GMT)
Date & Time tt [°C] td [°C] tt -20cm [°C] tt -100cm [°C] ff [km/h] ff [kn] fx [km/h] fx [kn] dd ppp [hPa] vv [km] rr [mm]
23.01.2019 02:00:00 -1,5 -2,2 - - 15 8 - - SW 997,3 50 -
23.01.2019 01:00:00 -0,2 -0,9 - - 15 8 - - WSW 996,8 50 0,0
23.01.2019 00:00:00 -2,3 -4,0 - - 9 5 - - WSW 996,8 50 0,0
22.01.2019 23:00:00 -1,1 -2,8 - - 16 9 - - WSW 996,3 50 0,0
22.01.2019 22:00:00 -2,7 -4,0 - - 13 7 - - SW 995,8 50 0,0
22.01.2019 21:00:00 -3,4 -4,8 - - 8 4 - - WSW 995,4 50 0,0
22.01.2019 20:00:00 -3,4 -4,8 - - 11 6 - - WSW 994,9 50 0,0
22.01.2019 19:00:00 -2,8 -4,7 - - 9 5 - - WSW 994,5 50 0,0
22.01.2019 18:00:00 -3,1 -4,7 - - 8 4 - - W 994,3 50 0,0
22.01.2019 17:00:00 -0,5 -2,9 - - 8 4 - - W 994,0 50 0,0
22.01.2019 16:00:00 1,8 -3,1 - - 5 3 - - W 993,7 50 0,0
22.01.2019 15:00:00 2,6 -2,4 - - 15 8 - - W 993,6 40 0,0
22.01.2019 14:00:00 3,2 -1,9 - - 5 3 - - WNW 993,4 45 0,0
22.01.2019 13:00:00 2,6 -1,6 - - 5 3 - - WSW 993,9 35 0,0
22.01.2019 12:00:00 1,9 -1,5 - - 9 5 - - W 994,4 30 0,0
22.01.2019 11:00:00 0,5 -2,4 - - 5 3 - - SW 994,7 30 0,0
22.01.2019 10:00:00 -1,2 -3,2 - - 5 3 - - SW 994,9 35 0,0
22.01.2019 09:00:00 -3,2 -4,8 2,7 4,7 11 6 - - WSW 995,1 30 0,0
22.01.2019 08:00:00 -2,0 -3,2 - - 8 4 - - SW 995,1 40 0,0
22.01.2019 07:00:00 -1,2 -2,5 - - 11 6 - - SW 995,2 30 0,0
22.01.2019 06:00:00 -0,4 -2,5 - - 9 5 - - W 995,5 40 0,0
22.01.2019 05:00:00 0,0 -1,6 - - 8 4 - - W 995,4 50 0,0
22.01.2019 04:00:00 1,0 -0,7 - - 15 8 - - WSW 995,7 50 0,0
22.01.2019 03:00:00 2,0 -0,2 - - 13 7 - - W 996,2 50 0,0
22.01.2019 02:00:00 1,1 -0,3 - - 15 8 - - SW 996,2 45 0,0
22.01.2019 01:00:00 1,4 0,0 - - 11 6 - - SW 996,6 50 0,0
22.01.2019 00:00:00 1,7 0,3 - - 11 6 - - SW 996,9 50 0,0
21.01.2019 23:00:00 2,1 0,6 - - 11 6 - - SW 997,1 40 0,0
21.01.2019 22:00:00 2,3 0,8 - - 8 4 - - W 997,5 35 0,4
21.01.2019 21:00:00 3,5 1,3 - - 22 12 - - SW 997,3 17 0,0
21.01.2019 20:00:00 3,7 1,0 - - 16 9 - - SSW 997,6 50 0,0
21.01.2019 19:00:00 4,5 0,4 - - 24 13 46 25 S 998,2 50 0,0
21.01.2019 18:00:00 4,3 0,5 - - 26 14 - - S 998,9 50 0,0
21.01.2019 17:00:00 4,5 0,6 - - 21 11 - - S 1000,6 50 0,0
21.01.2019 16:00:00 4,3 0,4 - - 18 10 - - S 1002,4 50 0,0
21.01.2019 15:00:00 4,4 0,1 - - 24 13 50 27 S 1003,9 50 0,0
21.01.2019 14:00:00 4,5 -0,1 - - 26 14 - - S 1005,7 50 0,0
21.01.2019 13:00:00 4,1 0,4 - - 9 5 - - SE 1008,1 45 0,0
21.01.2019 12:00:00 4,4 0,2 - - 16 9 - - SSE 1009,9 45 0,0
21.01.2019 11:00:00 4,6 0,2 - - 18 10 - - SW 1011,5 50 0,0
21.01.2019 10:00:00 3,6 1,0 - - 9 5 - - SW 1013,0 40 0,0
21.01.2019 09:00:00 3,0 0,8 2,9 5,0 9 5 - - SSW 1014,0 45 0,0
21.01.2019 08:00:00 2,1 0,0 - - 9 5 - - S 1015,1 45 0,0
21.01.2019 07:00:00 1,8 -0,3 - - 9 5 - - S 1016,4 50 0,0
21.01.2019 06:00:00 0,5 -1,0 - - 9 5 - - SSE 1017,3 35 0,0
21.01.2019 05:00:00 1,2 -0,2 - - 15 8 - - SSW 1018,2 45 0,0
21.01.2019 04:00:00 0,0 -1,6 - - 13 7 - - SW 1019,2 35 0,0
21.01.2019 03:00:00 0,7 -1,1 - - 21 11 - - SW 1020,3 40 0,0
21.01.2019 02:00:00 1,6 0,0 - - 8 4 - - WSW 1020,6 45 0,0
21.01.2019 01:00:00 0,6 -0,9 - - 13 7 - - W 1021,3 30 0,0
21.01.2019 00:00:00 0,6 -1,0 - - 15 8 - - SW 1021,7 40 0,0
20.01.2019 23:00:00 0,2 -1,9 - - 15 8 - - SW 1021,7 35 0,0
20.01.2019 22:00:00 0,4 -1,9 - - 13 7 - - WSW 1021,8 30 0,0
20.01.2019 21:00:00 0,5 -1,7 - - 9 5 - - WSW 1021,6 30 0,0
20.01.2019 20:00:00 2,2 -0,9 - - 13 7 - - SW 1021,3 40 0,0
20.01.2019 19:00:00 1,9 -0,6 - - 15 8 - - WNW 1020,8 35 0,0
20.01.2019 18:00:00 0,4 -1,6 - - 13 7 - - WSW 1020,4 35 0,0
20.01.2019 17:00:00 2,6 -0,2 - - 15 8 - - W 1020,0 35 0,0
20.01.2019 16:00:00 3,1 1,2 - - 13 7 - - WNW 1019,5 18 0,0
20.01.2019 15:00:00 3,1 1,1 - - 15 8 - - WNW 1018,7 35 0,0
20.01.2019 14:00:00 3,5 1,8 - - 21 11 46 25 WNW 1018,3 45 0,4
20.01.2019 13:00:00 4,5 1,5 - - 5 3 - - WSW 1018,0 30 0,0
20.01.2019 12:00:00 3,8 1,9 - - 24 13 - - NW 1017,1 40 0,0
20.01.2019 11:00:00 3,9 2,0 - - 18 10 - - W 1015,9 35 0,0
20.01.2019 10:00:00 2,7 2,3 - - 22 12 - - W 1015,6 7 0,0
20.01.2019 09:00:00 -0,3 -0,5 3,2 5,2 9 5 - - WSW 1014,4 50 0,0
20.01.2019 08:00:00 -1,6 -1,8 - - 8 4 - - W 1013,3 35 0,0
20.01.2019 07:00:00 -3,2 -3,7 - - 5 3 - - WSW 1012,9 50 0,0
20.01.2019 06:00:00 -3,6 -3,9 - - 4 2 - - WSW 1012,7 50 0,0
20.01.2019 05:00:00 -5,0 -5,5 - - 5 3 - - SW 1012,6 50 0,0
20.01.2019 04:00:00 -6,3 -6,8 - - 4 2 - - W 1012,5 40 0,0
20.01.2019 03:00:00 -5,5 -6,0 - - 5 3 - - W 1012,5 0,5 0,0
20.01.2019 02:00:00 -6,0 -6,6 - - 8 4 - - WSW 1012,2 15 0,0
20.01.2019 01:00:00 -5,2 -5,7 - - 5 3 - - W 1012,1 3,0 0,0
20.01.2019 00:00:00 -5,4 -5,9 - - 5 3 - - WNW 1011,9 12 0,0
19.01.2019 23:00:00 -4,0 -4,3 - - 9 5 - - W 1011,5 9 0,0
19.01.2019 22:00:00 -4,8 -5,3 - - 8 4 - - W 1011,4 17 0,0
19.01.2019 21:00:00 -4,4 -5,0 - - 5 3 - - W 1011,0 19 0,0
19.01.2019 20:00:00 -3,8 -4,2 - - 5 3 - - W 1010,7 22 0,0
19.01.2019 19:00:00 -3,9 -4,5 - - 9 5 - - WNW 1010,4 30 0,0
19.01.2019 18:00:00 -3,2 -3,7 - - 8 4 - - W 1010,1 17 0,0
19.01.2019 17:00:00 -2,3 -3,2 - - 4 2 - - W 1009,8 23 0,0
19.01.2019 16:00:00 0,2 -1,9 - - 5 3 - - W 1009,4 45 0,0
19.01.2019 15:00:00 1,6 -0,9 - - 5 3 - - W 1008,9 35 0,0
19.01.2019 14:00:00 1,7 -1,0 - - 5 3 - - WNW 1009,2 35 0,0
19.01.2019 13:00:00 1,2 -1,1 - - 5 3 - - WNW 1009,2 30 0,0
19.01.2019 12:00:00 0,5 -1,4 - - 5 3 - - W 1009,2 24 0,0
19.01.2019 11:00:00 -0,8 -1,6 - - 8 4 - - WNW 1009,3 35 0,0
19.01.2019 10:00:00 -3,8 -4,3 - - 9 5 - - W 1008,9 30 0,0
19.01.2019 09:00:00 -4,6 -5,1 3,7 5,7 9 5 - - W 1008,6 40 0,0
19.01.2019 08:00:00 -5,1 -6,0 - - 5 3 - - W 1008,2 35 0,0
19.01.2019 07:00:00 -3,5 -4,2 - - 9 5 - - WSW 1007,8 50 0,0
19.01.2019 06:00:00 -4,2 -4,7 - - 5 3 - - W 1007,5 30 0,0
19.01.2019 05:00:00 -4,0 -4,4 - - 8 4 - - WNW 1007,4 40 0,0
19.01.2019 04:00:00 -4,7 -5,5 - - 5 3 - - W 1007,7 30 0,0
19.01.2019 03:00:00 -3,9 -4,6 - - 9 5 - - WSW 1007,5 45 0,0
19.01.2019 02:00:00 -3,8 -4,6 - - 4 2 - - W 1007,7 35 0,0
19.01.2019 01:00:00 -3,5 -4,3 - - 5 3 - - W 1008,0 25 0,0
19.01.2019 00:00:00 -2,8 -3,7 - - 9 5 - - WNW 1008,3 35 0,0
18.01.2019 23:00:00 -3,6 -4,5 - - 5 3 - - WSW 1008,2 35 0,0
18.01.2019 22:00:00 -3,9 -4,9 - - 8 4 - - W 1008,3 30 0,0
18.01.2019 21:00:00 -3,8 -5,3 - - 5 3 - - W 1008,3 15 0,0
18.01.2019 20:00:00 -2,4 -5,0 - - 5 3 - - WSW 1008,4 30 0,0
18.01.2019 19:00:00 -2,0 -4,8 - - 8 4 - - SW 1008,6 50 0,0
18.01.2019 18:00:00 -0,9 -4,4 - - 9 5 - - SE 1008,7 50 0,0
18.01.2019 17:00:00 0,5 -3,9 - - 9 5 - - SE 1009,0 50 0,0
18.01.2019 16:00:00 0,9 -2,7 - - 4 2 - - E 1009,4 35 0,0
18.01.2019 15:00:00 1,1 -2,4 - - 9 5 - - ESE 1009,8 50 0,2
18.01.2019 14:00:00 2,8 -2,8 - - 15 8 - - SSE 1010,3 45 0,0
18.01.2019 13:00:00 3,3 -2,1 - - 8 4 - - SE 1010,8 40 0,0
18.01.2019 12:00:00 1,6 -2,6 - - 9 5 - - S 1011,4 23 0,0
18.01.2019 11:00:00 1,5 -2,4 - - 15 8 - - S 1011,9 35 0,0
18.01.2019 10:00:00 0,3 -2,3 - - 15 8 - - S 1012,2 50 0,0
18.01.2019 09:00:00 -4,8 -5,5 4,5 5,9 2 1 - - W 1012,3 26 0,0
18.01.2019 08:00:00 -3,6 -4,0 - - 2 1 - - SW 1012,4 25 0,0
18.01.2019 07:00:00 -3,8 -4,1 - - 5 3 - - WSW 1012,6 17 0,0
18.01.2019 06:00:00 -3,7 -4,1 - - 2 1 - - SE 1013,0 14 0,0
18.01.2019 05:00:00 -3,8 -4,2 - - 4 2 - - ESE 1013,2 16 0,0
18.01.2019 04:00:00 -3,0 -3,3 - - 4 2 - - S 1013,5 22 0,0
18.01.2019 03:00:00 -3,9 -4,3 - - 2 1 - - SSE 1014,1 27 0,0
18.01.2019 02:00:00 -4,2 -5,2 - - 4 2 - - SW 1014,3 19 0,0
18.01.2019 01:00:00 -2,8 -3,3 - - 5 3 - - S 1014,9 22 0,0
18.01.2019 00:00:00 -2,7 -3,6 - - 8 4 - - WSW 1015,2 23 0,0
17.01.2019 23:00:00 -2,3 -3,3 - - 5 3 - - W 1015,5 27 0,0
17.01.2019 22:00:00 -1,6 -3,0 - - 8 4 - - WSW 1016,0 30 0,0
17.01.2019 21:00:00 -0,9 -2,4 - - 9 5 - - SSW 1016,2 28 0,0
17.01.2019 20:00:00 -0,8 -2,3 - - 9 5 - - WSW 1016,1 45 0,0
17.01.2019 19:00:00 -0,2 -2,4 - - 9 5 - - WSW 1016,3 40 0,0
17.01.2019 18:00:00 0,7 -0,8 - - 15 8 - - NW 1015,9 45 0,0
17.01.2019 17:00:00 1,0 -0,6 - - 15 8 - - WNW 1015,9 50 0,0
17.01.2019 16:00:00 1,6 -1,0 - - 15 8 - - WNW 1015,6 40 0,0
17.01.2019 15:00:00 2,1 -0,5 - - 21 11 - - WNW 1015,4 30 0,0
17.01.2019 14:00:00 3,0 0,0 - - 22 12 - - WNW 1014,7 40 0,0
17.01.2019 13:00:00 2,8 -0,9 - - 29 16 - - WNW 1014,5 35 0,0
17.01.2019 12:00:00 2,9 -0,7 - - 26 14 - - WNW 1014,2 40 0,0
17.01.2019 11:00:00 2,1 -0,1 - - 26 14 - - NW 1014,0 40 0,2
17.01.2019 10:00:00 1,0 -0,2 - - 21 11 - - WNW 1013,6 35 0,0
17.01.2019 09:00:00 1,1 -1,1 5,2 6,0 16 9 - - NW 1012,7 45 0,0
17.01.2019 08:00:00 1,5 -1,9 - - 28 15 - - NNW 1011,3 35 0,0
17.01.2019 07:00:00 1,2 -0,6 - - 28 15 - - NW 1010,4 3,4 0,0
17.01.2019 06:00:00 1,2 -1,3 - - 21 11 - - WNW 1009,3 50 0,0
17.01.2019 05:00:00 0,8 -1,1 - - 26 14 48 26 NW 1008,0 45 0,0
17.01.2019 04:00:00 0,5 -1,1 - - 29 16 48 26 NW 1006,8 40 0,0
17.01.2019 03:00:00 1,4 -1,0 - - 31 17 52 28 NW 1005,8 19 0,0
17.01.2019 02:00:00 1,0 -2,0 - - 29 16 57 31 WNW 1005,2 2,6 0,0

tt = temperature
td = dewpoint
tt -20cm = temperature -20cm
tt -100cm = temperature -100cm
ff = wind speed
fx = gusts
dd = wind direction
ppp = reduced air pressure
vv = visibility
rr = precipitation

Next stations